Home > Time Zones > World Clock > Weather > India > Thane > Past weeks

Flag for India Weather past 2 weeks in Thane, Maharashtra, India

Now
86 °F

Clear.


Feels Like: 92 °F
Forecast: 79 / 99 °F
Wind: No wind

Location: Bombay / Santacruz


UV Index: -2147483648 (Low)

Visibility: 2 mi


Pressure: 29.86 "Hg

Humidity: 62%

Dew point: 72 °F

Location of ThaneLocation

Historic Weather in Thane

°F

Thane temperature yesterday

Maximum temperature yesterday: 95 °F (at 10:40 AM)
Minimum temperature yesterday: 84 °F (at 5:40 AM)
Average temperature yesterday: 89 °F

Past Weeks' High & Low Weather Summary

 TemperatureHumidityPressure
High100 °F (Apr 21, 12:40 PM)84% (Apr 19, 9:40 PM)29.98 "Hg (Apr 19, 9:40 PM)
Low75 °F (Apr 13, 6:40 AM)28% (Apr 21, 11:40 AM)29.71 "Hg (Apr 20, 3:40 PM)
Average84 °F66%29.83 "Hg
* Reported Apr 10 8:40 AM — Apr 25 8:40 AM, Thane, Weather by CustomWeather, © 2014

Note: Actual official high and low records may vary slightly from our data, if they occured in-between our weather recording intervals... More about our weather records

Advertising

Historic Weather Conditions — Data for Previous 24 hours

 ConditionsComfort  
Time TempWeatherWind HumidityBarometerVisibility
8:40 AM
Apr 25
86 °FClear.No wind62%29.86 "Hg2 mi
7:40 AM86 °FHaze.No wind66%29.83 "Hg2 mi
6:40 AM81 °FHaze.6 mph79%29.80 "Hg2 mi
5:40 AM81 °FHaze.3 mph79%29.77 "Hg2 mi
4:40 AM81 °FHaze.3 mph79%29.77 "Hg2 mi
3:40 AM82 °FHaze.No wind79%29.77 "Hg2 mi
2:40 AM84 °FHaze.5 mph74%29.74 "Hg2 mi
1:40 AM84 °FHaze.7 mph79%29.77 "Hg2 mi
12:40 AM84 °FHaze.9 mph79%29.80 "Hg2 mi
11:40 PM
Apr 24
84 °FHaze.7 mph79%29.80 "Hg2 mi
10:40 PM86 °FHaze.5 mph70%29.80 "Hg2 mi
9:40 PM86 °FHaze.6 mph70%29.77 "Hg2 mi
8:40 PM88 °FHaze.6 mph66%29.77 "Hg2 mi
7:40 PM88 °FClear.8 mph59%29.74 "Hg2 mi
6:40 PM90 °FClear.7 mph52%29.71 "Hg3 mi
5:40 PM91 °FClear.10 mph46%29.71 "Hg3 mi
4:40 PM93 °FClear.12 mph49%29.71 "Hg3 mi
3:40 PM93 °FHaze.12 mph47%29.71 "Hg3 mi
2:40 PM93 °FHaze.9 mph49%29.71 "Hg3 mi
1:40 PM91 °FHaze.10 mph59%29.74 "Hg3 mi
12:40 PM91 °FHaze.13 mph63%29.77 "Hg3 mi
11:40 AM91 °FClear.12 mph59%29.80 "Hg3 mi
10:40 AM95 °FClear.3 mph47%29.83 "Hg2 mi
Weather by CustomWeather, © 2014

See weather overview